Location: Unspecified
(0.0000°N, 0.0000°E)
Time: 20:27:59
(UTC+00:00)

Hubble Space Telescope - Visible Passes

Search period start: 18 December 2017 00:00
Search period end: 28 December 2017 00:00
Orbit: 537 x 541 km, 28.5° (Epoch: 17 December)

Date Brightness Start Highest point End Pass type
(mag) Time Alt. Az. Time Alt. Az. Time Alt. Az.
20 Dec 2.5 19:43:13 10° NW 19:45:01 24° NW 19:45:01 24° NW visible
21 Dec 0.7 19:32:52 10° NW 19:36:38 68° NNW 19:36:38 68° NNW visible
22 Dec 0.8 19:22:38 10° WNW 19:26:46 76° SSW 19:28:24 35° SE visible
23 Dec 1.5 19:12:30 10° WNW 19:16:32 52° SSW 19:20:15 12° SE visible
24 Dec 2.9 05:26:44 10° SSW 05:30:17 28° SSE 05:33:51 10° E visible
24 Dec 2.3 19:02:29 10° W 19:06:18 36° SSW 19:10:08 10° SE visible
25 Dec 2.2 05:16:12 10° SW 05:20:05 39° SSE 05:23:57 10° E visible
25 Dec 3.0 18:52:37 10° W 18:56:06 26° SSW 18:59:35 10° SSE visible
26 Dec 3.9 03:28:09 10° SSE 03:28:30 10° SSE 03:29:05 10° SE visible
26 Dec 1.4 05:05:47 10° SW 05:09:51 56° SSE 05:13:54 10° ENE visible
26 Dec 3.5 18:42:55 10° WSW 18:45:54 19° SSW 18:48:52 10° SSE visible
27 Dec 4.0 03:19:58 12° SE 03:19:58 12° SE 03:20:35 10° ESE visible
27 Dec 0.8 04:55:28 10° WSW 04:59:36 83° SSE 05:03:45 10° ENE visible
27 Dec 3.7 18:33:31 10° WSW 18:35:42 14° SSW 18:37:55 10° S visible
